When you browse on this site, cookies collect data to enhance your experience and personalize the content and advertising you see.
Visit our Privacy Policy to learn more. By continuing to use the site, you agree to this use of cookies and data.
  • In France
  • List of Countries
  • For 7 days
  • Water Temperature
  • Weather Map
  • Weather Widgets
  • user-avatar
    Login

    Hourly Weather Windham

    Today, 4 June, Thursday

    Time Temperature Precipitation Wind Pressure Humidity
    00:00 +18°C° 0 mm 1 mps 745 mmHg 96%
    01:00 +18°C° 0 mm 1 mps 746 mmHg 96%
    02:00 +16°C° 0 mm 1 mps 746 mmHg 96%
    03:00 +16°C° 0 mm 1 mps 746 mmHg 96%
    04:00 +16°C° 0 mm 1 mps 746 mmHg 96%
    05:00 +18°C° 0 mm 2 mps 747 mmHg 90%
    06:00 +19°C° 0 mm 2 mps 748 mmHg 84%
    07:00 +21°C° 0 mm 2 mps 749 mmHg 77%
    08:00 +24°C° 0 mm 2 mps 749 mmHg 69%
    09:00 +25°C° 0 mm 2 mps 749 mmHg 60%
    10:00 +27°C° 0 mm 2 mps 750 mmHg 51%
    11:00 +28°C° 0 mm 3 mps 750 mmHg 46%
    12:00 +29°C° 0 mm 3 mps 750 mmHg 41%
    13:00 +30°C° 0 mm 3 mps 750 mmHg 36%
    14:00 +30°C° 0 mm 3 mps 750 mmHg 37%
    15:00 +30°C° 0 mm 3 mps 750 mmHg 39%
    16:00 +29°C° 0 mm 3 mps 750 mmHg 40%
    17:00 +27°C° 0 mm 2 mps 750 mmHg 50%
    18:00 +25°C° 0 mm 2 mps 750 mmHg 60%
    19:00 +21°C° 0 mm 2 mps 751 mmHg 70%
    20:00 +21°C° 0 mm 2 mps 751 mmHg 72%
    21:00 +20°C° 0 mm 2 mps 751 mmHg 73%
    22:00 +19°C° 0 mm 2 mps 752 mmHg 74%
    23:00 +19°C° 0 mm 2 mps 752 mmHg 77%

    Tomorrow, 5 June, Friday

    Time Temperature Precipitation Wind Pressure Humidity
    00:00 +19°C° 0 mm 2 mps 752 mmHg 80%
    01:00 +19°C° 0 mm 2 mps 752 mmHg 83%
    02:00 +19°C° 0 mm 2 mps 751 mmHg 85%
    03:00 +20°C° 0 mm 1 mps 751 mmHg 87%
    04:00 +20°C° 0 mm 1 mps 751 mmHg 88%
    05:00 +20°C° 0 mm 1 mps 751 mmHg 88%
    06:00 +21°C° 0 mm 1 mps 752 mmHg 89%
    07:00 +21°C° 0 mm 1 mps 752 mmHg 89%
    08:00 +23°C° 0 mm 2 mps 752 mmHg 81%
    09:00 +25°C° 0 mm 2 mps 752 mmHg 73%
    10:00 +27°C° 0 mm 3 mps 752 mmHg 65%
    11:00 +28°C° 0 mm 4 mps 751 mmHg 61%
    12:00 +29°C° 0 mm 4 mps 751 mmHg 58%
    13:00 +30°C° 0 mm 4 mps 751 mmHg 54%
    14:00 +29°C° 0 mm 5 mps 750 mmHg 57%
    15:00 +29°C° 0 mm 5 mps 750 mmHg 59%
    16:00 +28°C° 0 mm 5 mps 750 mmHg 61%
    17:00 +26°C° 0 mm 5 mps 750 mmHg 70%
    18:00 +23°C° 0 mm 4 mps 750 mmHg 78%
    19:00 +21°C° 0 mm 4 mps 750 mmHg 86%
    20:00 +20°C° 0 mm 4 mps 750 mmHg 89%
    21:00 +20°C° 0 mm 4 mps 750 mmHg 92%
    22:00 +19°C° 0 mm 4 mps 750 mmHg 95%
    23:00 +19°C° 0 mm 4 mps 749 mmHg 94%

    Day after tomorrow, 6 June, Saturday

    Time Temperature Precipitation Wind Pressure Humidity
    00:00 +20°C° 0 mm 3 mps 749 mmHg 94%
    01:00 +20°C° 0 mm 3 mps 748 mmHg 93%
    02:00 +20°C° 0.2 mm 3 mps 748 mmHg 95%
    03:00 +20°C° 0.2 mm 3 mps 748 mmHg 96%
    04:00 +20°C° 0.2 mm 3 mps 747 mmHg 98%
    05:00 +20°C° 0.1 mm 3 mps 747 mmHg 97%
    06:00 +21°C° 0.1 mm 3 mps 747 mmHg 96%
    07:00 +21°C° 0.1 mm 3 mps 747 mmHg 95%
    08:00 +24°C° 0 mm 3 mps 747 mmHg 89%
    09:00 +25°C° 0 mm 3 mps 747 mmHg 83%
    10:00 +27°C° 0 mm 3 mps 746 mmHg 76%
    11:00 +26°C° 1.2 mm 3 mps 746 mmHg 81%
    12:00 +26°C° 1.2 mm 3 mps 746 mmHg 87%
    13:00 +25°C° 1.2 mm 3 mps 745 mmHg 92%
    14:00 +26°C° 0.4 mm 3 mps 745 mmHg 80%
    15:00 +27°C° 0.4 mm 3 mps 745 mmHg 67%
    16:00 +28°C° 0.4 mm 3 mps 745 mmHg 55%
    17:00 +26°C° 0 mm 3 mps 745 mmHg 58%
    18:00 +24°C° 0 mm 3 mps 745 mmHg 60%
    19:00 +21°C° 0 mm 3 mps 746 mmHg 63%
    20:00 +20°C° 0 mm 3 mps 746 mmHg 61%
    21:00 +19°C° 0 mm 3 mps 746 mmHg 59%
    22:00 +18°C° 0 mm 3 mps 747 mmHg 57%
    23:00 +17°C° 0 mm 3 mps 747 mmHg 62%

    7 June, Sunday

    Time Temperature Precipitation Wind Pressure Humidity
    00:00 +16°C° 0 mm 2 mps 747 mmHg 68%
    01:00 +15°C° 0 mm 2 mps 747 mmHg 73%
    02:00 +14°C° 0 mm 2 mps 747 mmHg 77%
    03:00 +14°C° 0 mm 2 mps 747 mmHg 81%
    04:00 +13°C° 0 mm 2 mps 748 mmHg 85%
    05:00 +13°C° 0 mm 3 mps 748 mmHg 76%
    06:00 +16°C° 0 mm 3 mps 748 mmHg 68%
    07:00 +17°C° 0 mm 4 mps 749 mmHg 59%
    08:00 +18°C° 0 mm 4 mps 749 mmHg 53%
    09:00 +20°C° 0 mm 4 mps 749 mmHg 47%
    10:00 +21°C° 0 mm 4 mps 749 mmHg 40%
    11:00 +22°C° 0 mm 4 mps 749 mmHg 39%
    12:00 +23°C° 0 mm 4 mps 749 mmHg 37%
    13:00 +25°C° 0 mm 4 mps 749 mmHg 35%
    14:00 +23°C° 0 mm 4 mps 749 mmHg 36%
    15:00 +23°C° 0 mm 4 mps 749 mmHg 36%
    16:00 +23°C° 0 mm 4 mps 749 mmHg 37%
    17:00 +21°C° 0 mm 4 mps 750 mmHg 41%
    18:00 +19°C° 0 mm 3 mps 750 mmHg 46%
    19:00 +18°C° 0 mm 3 mps 751 mmHg 51%
    20:00 +17°C° 0 mm 3 mps 752 mmHg 52%
    21:00 +16°C° 0 mm 3 mps 752 mmHg 53%
    22:00 +14°C° 0 mm 3 mps 753 mmHg 54%
    23:00 +14°C° 0 mm 2 mps 753 mmHg 58%

    8 June, Monday

    Time Temperature Precipitation Wind Pressure Humidity
    00:00 +13°C° 0 mm 2 mps 753 mmHg 63%
    01:00 +12°C° 0 mm 2 mps 754 mmHg 67%
    02:00 +10°C° 0 mm 2 mps 754 mmHg 67%
    03:00 +10°C° 0 mm 2 mps 755 mmHg 66%
    04:00 +9°C° 0 mm 2 mps 755 mmHg 66%
    05:00 +11°C° 0 mm 3 mps 756 mmHg 60%
    06:00 +13°C° 0 mm 3 mps 756 mmHg 54%
    07:00 +16°C° 0 mm 3 mps 757 mmHg 48%
    08:00 +18°C° 0 mm 3 mps 757 mmHg 44%
    09:00 +19°C° 0 mm 3 mps 757 mmHg 41%
    10:00 +20°C° 0 mm 3 mps 757 mmHg 38%
    11:00 +22°C° 0 mm 3 mps 756 mmHg 34%
    12:00 +24°C° 0 mm 3 mps 756 mmHg 31%
    13:00 +25°C° 0 mm 3 mps 756 mmHg 28%
    14:00 +25°C° 0 mm 3 mps 756 mmHg 27%
    15:00 +25°C° 0 mm 3 mps 755 mmHg 27%
    16:00 +25°C° 0 mm 2 mps 755 mmHg 27%
    17:00 +23°C° 0 mm 2 mps 755 mmHg 38%
    18:00 +19°C° 0 mm 2 mps 755 mmHg 49%
    19:00 +18°C° 0 mm 1 mps 755 mmHg 61%
    20:00 +16°C° 0 mm 1 mps 755 mmHg 56%
    21:00 +14°C° 0 mm 1 mps 756 mmHg 52%
    22:00 +13°C° 0 mm 1 mps 756 mmHg 47%
    23:00 +13°C° 0 mm 1 mps 756 mmHg 47%

    9 June, Tuesday

    Time Temperature Precipitation Wind Pressure Humidity
    00:00 +13°C° 0 mm 1 mps 756 mmHg 47%
    01:00 +12°C° 0 mm 1 mps 755 mmHg 47%
    02:00 +12°C° 0 mm 1 mps 755 mmHg 49%
    03:00 +10°C° 0 mm 0 mps 755 mmHg 51%
    04:00 +10°C° 0 mm 0 mps 755 mmHg 53%
    05:00 +12°C° 0 mm 0 mps 755 mmHg 53%
    06:00 +15°C° 0 mm 0 mps 755 mmHg 52%
    07:00 +17°C° 0 mm 0 mps 755 mmHg 52%
    08:00 +21°C° 0 mm 1 mps 755 mmHg 47%
    09:00 +23°C° 0 mm 1 mps 755 mmHg 41%
    10:00 +25°C° 0 mm 2 mps 755 mmHg 35%
    11:00 +26°C° 0 mm 2 mps 754 mmHg 33%
    12:00 +26°C° 0 mm 2 mps 754 mmHg 30%
    13:00 +27°C° 0 mm 2 mps 754 mmHg 28%
    14:00 +27°C° 0 mm 3 mps 753 mmHg 28%
    15:00 +27°C° 0 mm 3 mps 753 mmHg 29%
    16:00 +27°C° 0 mm 3 mps 752 mmHg 29%
    17:00 +24°C° 0 mm 3 mps 752 mmHg 41%
    18:00 +21°C° 0 mm 2 mps 752 mmHg 53%
    19:00 +19°C° 0 mm 1 mps 752 mmHg 65%
    20:00 +18°C° 0 mm 1 mps 752 mmHg 67%
    21:00 +16°C° 0 mm 1 mps 752 mmHg 69%
    22:00 +15°C° 0 mm 1 mps 753 mmHg 71%
    23:00 +15°C° 0 mm 1 mps 753 mmHg 73%
    Show more